This demonstration page uses our WeatherBlox Daily Observations layout. Learn more.

Left ArrowRight Arrow

Hourly Observations for December 19, 2015

Temp ( °F °C ) Dew Point ( °F °C ) Humidity (%) Winds ( mph kmh ) Pressure ( in mb ) Visibility ( mi km ) Precip ( " mm )
12:11 am 00:11 Cloudy with Mist and Fog 42 5.6 39 3.9 89 89 NW 5 7 29.94 1014 3 5 0.00 0.00
12:53 am 00:53 Cloudy with Mist and Fog 42 5.6 39 3.9 89 89 NNW 3 6 29.92 1013 3 5 0.00 0.00
1:53 am 01:53 Cloudy with Mist and Fog 43 6.1 39 3.9 86 86 NW 5 7 29.92 1013 3 4 0.00 0.00
2:27 am 02:27 Cloudy with Mist and Fog 43 6.1 40 4.4 89 89 N 3 6 29.94 1014 3 5 0.00 0.00
2:39 am 02:39 Cloudy with Mist and Fog 43 6.1 40 4.4 89 89 N 5 7 29.94 1014 4 6 0.00 0.00
2:53 am 02:53 Cloudy with Mist and Fog 43 6.1 40 4.4 89 89 NNE 3 6 29.91 1013 5 8 0.00 0.00
3:27 am 03:27 Cloudy with Mist and Fog 43 6.1 40 4.4 89 89 Calm 29.94 1014 5 8 0.00 0.00
3:36 am 03:36 Cloudy with Mist and Fog 43 6 39 4 87 87 Calm 29.94 1014 5 8 0.00 0.00
3:53 am 03:53 Cloudy with Mist and Fog 43 6.1 40 4.4 89 89 WNW 3 6 29.92 1013 4 6 0.00 0.00
4:53 am 04:53 Cloudy with Mist and Fog 43 6.1 40 4.4 89 89 WNW 3 6 29.93 1014 3 5 0.01 0.25
5:10 am 05:10 Cloudy with Light Rain 45 7 39 4 81 81 Calm 29.94 1014 5 8 0.00 0.00
5:31 am 05:31 Cloudy with Rain 44 6.7 40 4.4 85 85 E 6 9 29.94 1014 3 5 0.02 0.51
5:41 am 05:41 Cloudy with Light Rain 43 6.1 40 4.4 89 89 Calm 29.94 1014 3 4 0.04 1.02
5:47 am 05:47 Cloudy with Mist and Fog 43 6 39 4 87 87 WNW 3 6 29.94 1014 4 6 0.04 1.02
5:48 am 05:48 Cloudy with Mist and Fog 43 6.1 40 4.4 89 89 WNW 3 6 29.93 1014 4 6 0.04 1.02
6:04 am 06:04 Cloudy with Mist and Fog 43 6 39 4 87 87 Calm 29.94 1014 4 6 0.00 0.00
6:53 am 06:53 Cloudy with Mist and Fog 43 6.1 40 4.4 89 89 NW 3 6 29.95 1014 4 6 0.00 0.00
7:12 am 07:12 Cloudy with Mist and Fog 43 6.1 40 4.4 89 89 N 3 6 29.94 1014 4 6 0.00 0.00
7:53 am 07:53 Cloudy with Mist and Fog 44 6.7 40 4.4 85 85 Calm 29.96 1015 5 8 0.00 0.00
8:04 am 08:04 Cloudy with Mist and Fog 45 7 39 4 81 81 Calm 29.97 1015 4 6 0.00 0.00
8:41 am 08:41 Cloudy with Mist and Fog 44 6.7 41 5 89 89 Calm 29.97 1015 4 6 0.00 0.00
8:53 am 08:53 Cloudy with Mist and Fog 44 6.7 41 5 89 89 Calm 29.98 1015 4 6 0.00 0.00
9:16 am 09:16 Cloudy with Mist and Fog 45 7 41 5 87 87 Calm 30.00 1016 6 10 0.00 0.00
9:51 am 09:51 Partly Cloudy 46 8 43 6 87 87 NNW 3 6 30.00 1016 7 11 0.00 0.00
9:53 am 09:53 Partly Cloudy 46 7.8 42 5.6 86 86 N 3 6 30.00 1016 7 11 0.00 0.00
10:03 am 10:03 Mostly Cloudy 46 8 43 6 87 87 Calm 30.00 1016 8 13 0.00 0.00
10:10 am 10:10 Mostly Cloudy 46 8 43 6 87 87 Calm 30.00 1016 9 14 0.00 0.00
10:53 am 10:53 Cloudy 46 7.8 42 5.6 86 86 Calm 30.01 1016 10 16 0.00 0.00
11:53 am 11:53 Mostly Cloudy 47 8.3 42 5.6 83 83 W 3 6 29.98 1015 10 16 0.00 0.00
12:53 pm 12:53 Partly Cloudy 50 10 43 6.1 77 77 Calm 29.98 1015 10 16 0.00 0.00
1:53 pm 13:53 Partly Cloudy 53 11.7 42 5.6 66 66 Calm 29.96 1014 10 16 0.00 0.00
2:53 pm 14:53 Sunny 54 12.2 39 3.9 57 57 NNE 3 6 29.96 1015 10 16 0.00 0.00
3:53 pm 15:53 Sunny 54 12.2 36 2.2 51 51 Calm 29.97 1015 10 16 0.00 0.00
4:53 pm 16:53 Clear 47 8.3 41 5 80 80 Calm 29.98 1015 10 16 0.00 0.00
5:53 pm 17:53 Clear 46 7.8 39 3.9 77 77 Calm 29.99 1016 10 16 0.00 0.00
6:53 pm 18:53 Clear 44 6.7 38 3.3 79 79 Calm 30.02 1017 10 16 0.00 0.00
7:53 pm 19:53 Clear 41 5 37 2.8 86 86 Calm 30.04 1017 10 16 0.00 0.00
8:53 pm 20:53 Clear 39 3.9 35 1.7 86 86 Calm 30.05 1018 10 16 0.00 0.00
9:53 pm 21:53 Clear 38 3.3 34 1.1 86 86 Calm 30.07 1018 10 16 0.00 0.00
10:53 pm 22:53 Clear 36 2.2 33 0.6 89 89 Calm 30.08 1019 8 13 0.00 0.00
11:53 pm 23:53 Clear 36 2.2 32 0 86 86 Calm 30.09 1019 9 14 0.00 0.00

Powered by AerisWeather